Location: Unspecified
(0.0000°N, 0.0000°E)
Time: 07:38:14
(UTC+00:00)

Vanguard 2 - Pass Details

Date: 14 December 2018
Orbit: 553 x 2939 km, 32.9° (Epoch: 18 March)

Event Time Altitude Azimuth Distance (km) Brightness Sun altitude
Rises 01:25:46 0° 326° (NW) 4,845 - -57.9°
Reaches altitude 10° 01:29:07 10° 337° (NNW) 4,185 - -57.3°
Maximum altitude 01:39:39 33° 36° (NE) 3,517 - -55.5°
Exits shadow 01:43:14 30° 58° (ENE) 3,856 11.0 -54.8°
Drops below altitude 10° 01:53:51 10° 93° (E) 5,691 12.2 -52.9°
Sets 01:59:18 0° 102° (ESE) 6,789 12.9 -51.8°
